Terminal Aerodrome Forecast
Issued by NWS Nashville, TN

Home | Current Version | Previous Version | Text Only | Print | Product List | Glossary On
Versions: 1 2 3 4 5 6 7 8 9 10 11 12 13 14 15 16 17 18 19 20 21 22 23 24 25 26 27 28 29 30
000
FTUS44 KOHX 182300
TAFCSV
TAF
KCSV 182320Z 1900/1924 06004KT P6SM BKN250
     FM190300 00000KT P6SM SKC
     FM191000 00000KT 4SM BR SKC
     FM191500 12004KT P6SM SCT030=

USA.gov is the U.S. government's official web portal to all federal, state and local government web resources and services.